Temperature
11 11 11 11 11 11 11 11 11 11 11 11 11 11 11 11 11 11 11 11 11 11 11 11 11 11 11 11 11 11 11 11 11 11 11 11 11 11 11 11 11 11 10
10 10 10 10 10 10 11 11 11 11 11 11 11 11 11 11 11 11 11 11 11 11 11 11 11 11 11 11 11 11 11 11 11 11 11 11 11 10 10 10 10 10 10
10 10 10 10 10 10 10 10 10 10 10 10 10 10 11 11 11 10 10 10 10 10 10 11 11 11 11 11 11 11 10 10 10 10 10 10 10 10 10 10 10 10 10
9 9 9 9 9 9 9 10 10 10 10 10 10 10 10 10 10 10 10 10 10 10 10 10 10 10 10 10 10 10 10 10 10 10 10 10 10 10 10 10 10 10 10
9 9 9 9 9 9 9 9 9 9 9 9 9 9 9 9 9 9 9 9 9 9 9 10 10 10 10 10 10 10 10 10 10 10 10 10 10 10 9 9 9 9 9
8 8 8 8 8 8 8 8 9 9 9 9 9 9 9 9 9 9 9 9 9 9 9 9 9 9 9 9 9 9 10 9 9 9 9 9 9 9 9 9 9 9 9
7 7 7 8 8 8 8 8 8 8 8 8 8 8 8 8 8 8 9 8 9 9 9 9 9 9 9 9 9 9 9 9 9 9 9 9 9 9 9 8 8 8 8
7 7 7 7 7 7 7 7 7 8 8 8 8 7 7 7 7 8 8 8 8 8 8 8 8 8 8 8 9 8 8 8 8 9 9 9 8 8 8 8 8 8 8
6 6 6 6 6 7 7 7 7 7 7 7 7 7 7 7 7 7 7 8 8 8 8 8 8 8 8 8 8 8 8 8 8 8 8 8 8 8 8 7 7 7 7
5 6 6 6 6 6 6 6 7 7 7 7 7 7 7 7 7 6 7 7 7 7 7 7 8 8 8 8 8 8 8 8 8 8 8 8 7 7 7 7 7 7 7
5 5 5 5 5 5 6 6 6 6 6 6 7 7 7 7 7 7 6 6 7 7 7 7 7 7 7 7 7 7 7 7 7 7 7 7 7 7 7 6 6 6 6
4 4 4 5 5 5 5 5 5 6 6 6 6 6 6 6 6 6 6 6 6 6 7 7 7 7 7 7 7 7 7 7 7 7 7 7 7 7 6 6 6 6 6
4 4 4 4 4 4 5 5 5 5 5 5 5 6 6 6 6 6 6 5 5 6 6 6 6 6 6 6 7 7 7 7 7 7 6 6 6 6 6 6 6 6 6
3 3 3 4 4 4 4 4 4 5 5 5 5 5 5 6 6 6 6 5 5 5 5 5 6 6 6 6 6 6 6 6 6 6 6 6 6 6 6 6 6 6 5
2 2 3 3 3 3 3 4 4 4 4 4 5 5 5 5 5 5 5 5 5 4 5 5 5 5 5 5 6 5 5 6 6 6 6 6 6 5 5 5 5 5 5
1 2 2 2 2 3 3 3 3 4 4 4 4 4 4 5 5 5 5 5 5 4 4 4 5 5 5 5 5 5 5 5 5 5 5 5 5 5 5 5 5 5 5
1 1 1 1 2 2 2 3 3 3 3 3 4 4 4 4 4 4 4 4 4 4 4 4 4 4 4 4 4 4 4 4 4 5 5 5 4 4 4 4 4 4 4
0 0 1 1 1 2 2 2 2 3 3 3 3 3 4 4 4 4 4 4 4 4 3 4 4 4 4 4 4 4 4 4 4 4 4 4 4 4 4 4 4 4 3
-0 -0 0 0 1 1 1 2 2 2 2 2 3 3 3 3 3 3 3 3 3 3 3 3 3 3 3 3 3 3 3 3 3 3 3 3 3 3 3 3 3 3 3
-1 -1 -0 -0 0 1 1 1 1 2 2 2 2 2 2 3 3 3 3 3 3 3 3 3 3 2 2 3 2 3 2 2 3 3 3 3 3 3 3 2 2 2 2
-2 -1 -1 -1 -0 0 0 1 1 1 1 1 2 2 2 2 2 3 3 2 2 2 2 2 2 2 2 2 2 2 2 2 2 2 2 2 2 2 2 2 2 2 2
-2 -2 -2 -1 -1 -0 0 0 1 1 1 1 1 1 2 2 2 2 2 2 2 2 2 2 2 2 2 2 2 2 1 1 1 1 1 1 1 1 1 1 2 2 2
-3 -2 -2 -2 -1 -1 -0 -0 -0 0 0 1 1 1 1 1 1 2 2 1 1 1 1 1 1 1 1 1 1 1 1 1 1 1 1 1 1 1 1 1 1 1 1
-3 -3 -2 -2 -2 -1 -1 -1 -1 -0 -0 -0 -0 0 0 1 1 1 1 1 1 1 1 1 1 1 1 1 1 1 1 0 0 0 0 0 0 0 0 0 0 1 1
-4 -3 -3 -3 -2 -2 -2 -1 -1 -1 -1 -1 -1 -0 -0 -0 0 0 0 0 0 0 0 0 1 1 1 1 0 0 -0 -0 -0 -0 -0 -1 -0 -0 -0 -0 -0 -0 -0
-4 -4 -3 -3 -3 -3 -2 -2 -2 -2 -2 -2 -1 -1 -1 -1 -1 -0 -0 -0 -0 -0 -0 -0 -0 -0 -0 -0 -0 -0 -0 -0 -1 -1 -1 -1 -1 -1 -1 -1 -1 -1 -1
Wind_Speed
0 0 0 1 0 1 1 1 2 2 2 2 2 3 3 2 2 2 4 6 5 4 5 5 5 5 5 6 6 7 8 8 8 8 7 7 8 7 7 7 7 7 7
1 1 1 1 1 1 1 1 2 2 2 2 2 2 2 2 2 3 3 5 5 4 4 4 4 5 5 5 6 7 8 8 8 7 7 7 7 7 6 6 6 6 6
2 2 1 1 1 2 2 2 2 2 2 2 2 2 2 2 2 3 3 3 4 4 4 4 4 4 4 4 5 6 7 7 7 7 7 7 6 6 6 6 6 5 5
2 2 2 2 2 2 2 2 2 2 2 2 2 2 2 2 2 2 3 3 3 3 4 4 3 3 2 3 4 5 6 6 7 6 6 6 6 6 6 5 5 5 4
2 2 2 2 3 2 2 2 2 2 3 2 2 2 2 2 2 2 3 3 3 2 2 3 3 2 2 2 3 4 5 6 7 7 6 6 6 6 6 5 5 4 4
2 2 2 3 3 3 2 2 2 2 2 3 3 2 1 1 2 2 2 2 2 2 1 1 1 2 1 2 2 4 5 6 7 7 7 6 6 6 6 6 5 4 4
2 2 2 3 3 4 4 4 3 3 3 3 3 2 2 2 2 1 2 2 2 2 2 1 1 1 1 2 2 3 4 5 7 7 7 7 7 6 6 6 5 5 5
2 2 3 3 3 3 5 5 4 3 3 4 3 3 3 3 2 2 2 2 2 2 1 1 1 1 2 1 2 2 3 4 5 6 7 7 6 6 6 6 5 5 5
3 3 4 3 4 4 5 6 6 6 4 4 4 3 3 3 2 3 3 2 2 2 2 2 1 1 2 2 2 3 3 3 5 5 6 6 6 6 6 6 5 5 5
3 4 4 4 4 4 5 6 6 5 5 5 4 3 2 2 2 3 3 3 3 2 2 2 2 2 2 2 2 2 3 3 4 4 5 5 5 6 6 6 6 6 6
3 4 4 4 4 4 5 6 6 6 6 6 4 3 3 2 3 3 3 4 3 3 3 3 2 2 3 2 2 3 3 3 3 4 4 4 5 5 5 5 6 6 6
3 4 4 4 4 4 5 5 6 7 6 6 5 5 5 4 4 4 3 4 4 3 3 3 3 3 3 3 3 3 4 4 4 4 4 4 4 4 4 4 4 5 6
4 5 4 4 4 4 5 5 5 6 7 7 6 6 6 5 4 4 4 3 3 2 3 3 3 3 3 3 3 4 4 4 4 4 4 3 3 3 3 4 5 5 5
5 6 6 6 6 5 5 5 5 6 6 7 7 7 5 5 4 4 4 4 3 3 4 4 3 3 3 3 3 4 4 4 4 4 3 3 2 3 3 3 4 4 4
5 6 7 7 6 6 6 6 6 6 6 7 7 7 6 5 5 5 5 6 5 4 5 4 3 3 3 3 3 5 5 4 4 4 3 3 2 3 3 3 3 4 4
6 6 6 7 6 6 6 7 6 7 7 7 6 7 7 6 5 5 5 5 6 5 4 3 3 3 3 3 3 4 4 4 4 4 4 3 3 3 3 4 4 3 4
6 6 6 7 7 7 7 7 7 7 8 7 7 8 9 7 6 6 5 5 5 5 4 3 2 3 4 4 3 4 4 4 4 5 5 4 4 3 4 4 4 4 4
7 7 6 6 7 7 7 8 8 8 8 8 8 8 9 7 8 7 6 7 6 5 5 5 3 3 4 5 4 3 3 3 4 5 5 5 5 5 5 5 5 5 5
7 7 6 7 7 8 8 8 8 8 9 9 8 9 9 9 10 7 8 7 6 5 5 5 4 3 3 4 4 3 3 3 3 4 5 5 6 6 6 6 6 6 6
7 7 7 7 7 7 7 7 8 8 8 9 9 9 9 9 10 9 8 8 6 6 6 5 5 4 3 3 4 4 3 3 2 3 4 5 5 6 7 6 6 7 7
7 7 7 7 7 6 6 7 7 8 8 8 8 9 8 9 9 8 7 8 7 7 6 6 6 4 5 4 5 4 4 3 3 3 3 3 4 4 5 6 7 8 8
7 6 7 7 7 6 8 9 8 7 8 8 8 7 7 8 10 10 9 9 9 9 8 7 6 7 7 6 5 5 5 4 4 3 4 3 3 4 4 5 6 7 8
7 7 7 7 7 8 9 9 8 7 7 7 7 6 5 6 8 8 8 9 9 10 10 9 9 9 8 8 6 6 6 6 5 4 4 4 4 5 4 5 6 7 8
7 6 7 7 7 7 8 8 7 6 6 6 6 6 6 6 7 7 6 7 7 8 8 8 8 9 7 7 7 7 6 5 3 3 4 4 4 4 3 5 6 7 8
7 7 7 7 7 7 7 7 6 4 4 5 5 5 6 6 7 8 7 7 6 5 5 6 7 7 7 7 7 5 5 5 4 4 4 4 3 3 4 4 6 7 8
7 6 7 7 7 7 7 6 5 3 4 3 3 4 6 7 7 7 8 8 8 6 5 4 4 5 5 7 8 7 6 6 4 3 4 4 3 2 3 3 4 5 7
Wind_Direction
208 198 190 159 178 170 176 177 164 151 144 136 137 146 145 144 146 135 110 98 101 102 107 116 121 126 132 139 142 143 139 136 132 128 123 123 120 115 110 107 107 111 109
219 209 208 192 188 204 187 173 171 162 147 136 137 144 145 143 149 146 133 116 98 94 105 114 124 129 133 141 145 147 146 142 141 142 137 131 125 121 118 116 113 114 112
236 220 212 201 209 206 191 176 173 165 151 146 149 145 135 139 149 148 147 142 125 103 100 106 108 122 128 139 146 149 150 150 151 151 148 143 137 133 128 122 120 121 117
252 228 217 208 212 214 195 186 193 181 175 166 158 152 140 133 142 152 147 140 128 124 108 96 95 102 117 134 144 152 158 163 163 164 162 160 156 149 141 135 130 128 125
267 239 225 211 204 204 200 201 201 192 181 169 162 152 150 147 147 148 141 134 123 116 115 99 92 87 106 128 147 162 169 174 173 175 173 166 165 160 155 151 145 140 138
270 254 232 220 209 206 204 207 200 194 184 169 154 144 136 142 150 144 146 139 133 133 134 126 134 111 132 162 172 183 176 178 179 179 177 174 172 168 171 172 171 168 164
277 259 246 231 223 214 208 201 197 191 185 172 160 154 144 146 164 158 158 161 151 153 157 153 154 167 174 168 177 179 177 181 183 182 183 181 180 180 181 188 193 190 187
284 270 254 241 231 222 210 202 199 200 199 194 191 179 180 184 183 182 182 186 189 174 173 188 188 177 185 177 145 142 162 173 168 176 180 180 182 187 189 194 199 196 194
275 268 258 245 235 228 217 209 208 209 206 205 211 204 197 199 177 179 196 202 208 205 199 205 214 206 200 187 174 151 154 175 179 183 187 188 189 190 192 191 191 198 201
276 266 258 249 239 233 226 218 216 219 210 207 206 225 235 184 188 181 192 204 212 216 217 214 209 209 203 189 170 147 151 160 169 177 188 186 189 193 196 203 208 208 208
282 277 265 254 244 239 234 230 221 221 218 215 205 196 196 196 208 209 200 198 208 213 220 224 220 217 207 200 190 169 164 172 188 188 188 180 182 185 199 211 215 215 217
283 280 277 266 253 245 237 236 231 223 224 223 217 206 203 199 198 209 215 209 214 212 221 222 222 217 207 202 192 175 180 182 188 192 189 189 190 193 204 212 214 218 221
282 280 278 271 265 252 240 238 235 226 223 223 224 221 218 218 207 210 208 208 220 220 216 220 219 217 207 202 192 179 176 171 166 170 181 191 192 190 202 215 226 231 223
279 281 277 268 265 258 245 237 238 233 226 225 226 223 219 216 212 210 205 193 205 218 217 217 210 218 207 197 189 181 182 177 173 175 186 198 203 198 199 216 223 223 226
285 281 279 273 265 261 253 241 236 235 232 229 227 224 220 215 212 214 209 204 206 217 225 211 203 206 207 203 189 189 193 184 190 194 196 197 213 225 223 220 222 224 231
287 280 278 276 267 260 254 246 241 237 234 232 227 226 223 215 211 210 210 213 217 223 229 216 214 207 202 203 196 198 201 197 201 197 198 206 215 229 233 224 225 221 217
287 279 275 273 268 261 256 247 242 238 236 235 229 226 226 217 212 210 210 211 214 215 223 245 236 207 205 203 197 203 209 208 202 199 202 205 215 223 227 226 225 222 224
289 283 277 272 268 261 256 250 245 239 236 235 233 230 228 217 215 212 210 212 212 212 215 223 231 216 217 203 200 203 214 209 207 201 207 214 222 228 230 225 225 230 234
288 286 278 269 269 264 255 251 246 240 239 239 237 235 232 220 216 214 212 214 213 210 211 210 221 219 220 202 199 209 214 214 212 204 212 221 225 228 232 229 228 232 230
285 283 277 271 268 266 259 253 247 240 240 240 239 237 235 227 220 215 212 213 210 206 203 204 209 213 214 208 202 206 215 217 224 220 218 222 223 228 231 229 231 232 232
285 282 277 273 270 267 263 261 252 244 241 240 238 236 235 232 225 217 213 210 204 207 205 205 207 212 212 203 208 210 213 217 243 237 220 221 220 227 228 224 226 229 233
286 282 278 276 273 270 271 270 263 249 242 238 236 236 233 228 220 218 217 216 213 210 208 208 215 214 219 218 213 204 203 216 240 216 222 235 233 238 234 228 228 228 230
285 279 278 275 274 275 275 274 272 259 245 239 236 234 234 230 217 215 212 213 219 223 221 218 218 219 219 214 207 209 211 219 237 221 226 241 237 242 240 236 234 238 239
284 281 280 278 276 274 276 278 279 269 252 243 240 236 234 233 220 211 210 215 223 227 226 225 224 224 220 210 207 212 217 224 235 234 229 242 241 246 249 240 233 239 244
285 283 282 280 276 274 273 274 278 270 258 250 247 242 234 234 222 211 207 212 220 229 223 225 228 221 213 209 201 194 201 208 232 237 231 233 236 252 256 251 235 236 243
281 281 279 277 275 273 271 270 271 263 258 259 259 250 239 233 222 216 213 210 216 219 211 205 204 202 201 198 200 208 208 211 222 229 212 217 224 233 245 243 238 239 242
Height
1536 1536 1537 1538 1538 1539 1540 1541 1542 1542 1543 1544 1545 1546 1546 1547 1548 1549 1550 1550 1551 1552 1553 1554 1554 1555 1555 1556 1557 1557 1558 1558 1559 1559 1560 1560 1561 1561 1561 1562 1562 1562 1563
1534 1534 1535 1536 1536 1537 1538 1538 1540 1540 1541 1542 1543 1544 1545 1546 1547 1548 1548 1549 1550 1551 1552 1552 1553 1553 1554 1555 1555 1556 1556 1557 1558 1558 1559 1559 1560 1560 1561 1561 1561 1562 1562
1532 1532 1533 1533 1534 1535 1535 1536 1537 1538 1539 1540 1541 1542 1543 1544 1545 1546 1547 1548 1548 1549 1550 1551 1551 1552 1553 1553 1554 1554 1555 1556 1556 1557 1557 1558 1558 1559 1559 1560 1560 1560 1561
1530 1530 1530 1531 1531 1532 1533 1534 1535 1536 1537 1538 1539 1540 1541 1542 1543 1544 1545 1546 1547 1547 1548 1549 1550 1550 1551 1551 1552 1552 1553 1554 1554 1555 1556 1556 1557 1557 1558 1559 1559 1559 1559
1527 1527 1528 1528 1529 1529 1530 1531 1532 1533 1534 1535 1537 1537 1538 1540 1540 1541 1543 1543 1544 1545 1546 1547 1548 1548 1549 1549 1550 1550 1551 1552 1552 1553 1554 1554 1555 1556 1556 1557 1557 1558 1558
1524 1525 1525 1525 1526 1527 1527 1528 1530 1531 1532 1533 1534 1535 1536 1537 1538 1539 1540 1541 1542 1543 1544 1545 1546 1546 1547 1547 1548 1548 1549 1549 1550 1551 1551 1552 1553 1554 1554 1555 1555 1556 1556
1521 1522 1522 1522 1523 1524 1524 1525 1527 1528 1529 1530 1532 1533 1534 1534 1535 1536 1537 1539 1540 1541 1542 1543 1543 1544 1544 1545 1545 1546 1546 1547 1547 1548 1549 1550 1551 1552 1552 1553 1553 1554 1554
1518 1518 1519 1519 1520 1520 1521 1522 1523 1524 1526 1527 1529 1530 1532 1534 1532 1533 1534 1536 1537 1538 1539 1540 1541 1541 1542 1542 1543 1543 1544 1544 1544 1545 1546 1547 1548 1549 1550 1550 1551 1551 1552
1515 1515 1515 1516 1516 1517 1517 1518 1520 1521 1522 1524 1526 1527 1529 1529 1530 1531 1531 1532 1534 1535 1536 1537 1538 1538 1539 1540 1540 1541 1542 1542 1543 1543 1544 1544 1545 1546 1547 1548 1548 1549 1549
1511 1512 1512 1512 1513 1513 1514 1515 1516 1518 1519 1520 1522 1523 1525 1525 1527 1528 1529 1529 1530 1532 1533 1534 1535 1536 1536 1537 1538 1538 1539 1540 1540 1541 1542 1542 1542 1543 1544 1545 1546 1546 1547
1508 1508 1508 1509 1509 1510 1510 1511 1512 1513 1515 1516 1517 1519 1520 1522 1523 1525 1526 1527 1528 1528 1530 1531 1532 1532 1533 1534 1535 1536 1536 1537 1537 1538 1539 1539 1540 1541 1541 1542 1543 1543 1544
1503 1504 1504 1505 1505 1505 1506 1507 1508 1509 1510 1512 1513 1515 1516 1518 1519 1521 1522 1523 1524 1525 1526 1527 1528 1529 1530 1531 1532 1532 1533 1534 1535 1535 1536 1537 1537 1538 1538 1539 1539 1540 1540
1499 1499 1500 1501 1501 1502 1502 1503 1504 1505 1506 1507 1509 1510 1512 1513 1515 1517 1518 1519 1520 1521 1522 1523 1524 1526 1527 1528 1528 1529 1530 1531 1532 1532 1533 1534 1534 1534 1535 1535 1536 1536 1536
1495 1495 1496 1496 1497 1497 1498 1499 1499 1501 1502 1503 1504 1506 1507 1508 1510 1512 1514 1515 1517 1518 1518 1519 1520 1522 1523 1524 1525 1526 1527 1528 1528 1529 1530 1530 1531 1531 1532 1532 1532 1533 1533
1491 1491 1491 1491 1492 1493 1493 1494 1495 1496 1497 1498 1499 1500 1502 1503 1505 1507 1509 1511 1513 1514 1515 1515 1516 1517 1519 1520 1521 1522 1523 1524 1525 1526 1526 1527 1528 1528 1528 1529 1529 1529 1529
1486 1486 1486 1487 1487 1488 1488 1489 1490 1491 1492 1493 1495 1496 1497 1499 1500 1502 1504 1506 1508 1510 1510 1511 1512 1513 1515 1516 1518 1518 1519 1520 1521 1522 1522 1523 1524 1524 1525 1525 1525 1525 1525
1482 1482 1482 1482 1482 1483 1483 1484 1485 1485 1486 1488 1489 1491 1492 1493 1495 1497 1499 1501 1503 1505 1505 1506 1508 1509 1511 1512 1513 1514 1515 1516 1517 1518 1518 1519 1520 1520 1521 1521 1521 1521 1521
1477 1477 1477 1477 1477 1478 1478 1478 1479 1480 1481 1482 1483 1485 1486 1488 1490 1492 1494 1496 1498 1499 1501 1502 1503 1505 1506 1508 1509 1510 1511 1512 1512 1513 1514 1515 1515 1516 1516 1517 1517 1517 1517
1471 1471 1471 1472 1472 1472 1472 1473 1474 1474 1475 1476 1477 1479 1481 1482 1484 1486 1488 1490 1492 1494 1496 1497 1498 1500 1501 1503 1504 1506 1506 1507 1508 1509 1509 1510 1511 1511 1512 1512 1512 1513 1513
1466 1466 1466 1466 1466 1467 1467 1467 1468 1469 1469 1471 1472 1473 1475 1476 1478 1480 1482 1484 1487 1488 1490 1492 1493 1495 1496 1498 1499 1501 1502 1503 1504 1504 1505 1506 1506 1507 1507 1508 1508 1508 1509
1462 1461 1461 1461 1461 1461 1461 1462 1462 1463 1464 1465 1466 1467 1469 1471 1472 1475 1476 1479 1481 1483 1484 1486 1487 1489 1491 1492 1494 1495 1497 1498 1499 1500 1500 1501 1502 1502 1502 1503 1503 1504 1504
1457 1456 1456 1456 1456 1456 1456 1456 1457 1457 1458 1459 1460 1461 1463 1465 1466 1469 1471 1473 1475 1477 1478 1480 1482 1483 1485 1487 1489 1491 1492 1493 1494 1496 1496 1496 1497 1497 1498 1498 1498 1499 1499
1452 1451 1451 1450 1450 1450 1451 1451 1451 1452 1452 1453 1455 1456 1457 1459 1461 1463 1465 1467 1469 1471 1473 1475 1476 1478 1480 1481 1483 1485 1487 1488 1489 1490 1491 1491 1492 1492 1493 1493 1494 1494 1494
1447 1447 1446 1446 1445 1445 1445 1446 1446 1447 1447 1448 1449 1451 1452 1454 1456 1457 1459 1461 1463 1465 1467 1470 1471 1473 1475 1476 1478 1480 1481 1483 1484 1485 1486 1486 1487 1488 1488 1488 1489 1489 1489
1443 1442 1442 1441 1441 1441 1441 1441 1442 1442 1442 1443 1444 1446 1447 1449 1450 1452 1454 1455 1457 1460 1462 1464 1466 1467 1469 1471 1473 1474 1476 1477 1478 1479 1481 1481 1482 1482 1483 1483 1483 1484 1484
1439 1438 1437 1437 1437 1436 1436 1437 1437 1437 1438 1438 1439 1441 1442 1444 1445 1447 1448 1450 1452 1454 1457 1459 1460 1462 1464 1465 1467 1469 1471 1472 1472 1474 1475 1477 1477 1478 1478 1478 1478 1479 1479